This is the latest recevied weather packets stored in our database for station/object VU3HGG-15. If no packets are shown the sender has not sent any weather packets the latest 10 day(s).
| Time | Temp. | Humidity | Pressure | Rain* | Wind** | Luminosity | Snow |
|---|---|---|---|---|---|---|---|
| 1788012191 | 27.78° C | 68% | 910.8 hPa | - | - | - | - |
| 1788011591 | 27.78° C | 69% | 910.7 hPa | - | - | - | - |
| 1788010992 | 27.78° C | 68% | 910.5 hPa | - | - | - | - |
| 1788010391 | 27.78° C | 67% | 910.4 hPa | - | - | - | - |
| 1788009791 | 27.78° C | 68% | 910.3 hPa | - | - | - | - |
| 1788009191 | 27.78° C | 67% | 910.2 hPa | - | - | - | - |
| 1788008592 | 27.78° C | 66% | 910.3 hPa | - | - | - | - |
| 1788007992 | 27.78° C | 67% | 910.2 hPa | - | - | - | - |
| 1788007392 | 27.78° C | 68% | 910.3 hPa | - | - | - | - |
| 1788006791 | 27.78° C | 68% | 910.5 hPa | - | - | - | - |
| 1788006191 | 27.78° C | 64% | 910.6 hPa | - | - | - | - |
| 1788005591 | 27.78° C | 63% | 910.7 hPa | - | - | - | - |
| 1788004991 | 28.33° C | 63% | 910.5 hPa | - | - | - | - |
| 1788004391 | 27.78° C | 62% | 910.1 hPa | - | - | - | - |
| 1788003792 | 27.78° C | 62% | 909.2 hPa | - | - | - | - |
| 1788003191 | 27.78° C | 63% | 909 hPa | - | - | - | - |
| 1788002591 | 27.78° C | 64% | 909 hPa | - | - | - | - |
| 1788001992 | 27.78° C | 63% | 909 hPa | - | - | - | - |
| 1788001391 | 27.78° C | 62% | 909 hPa | - | - | - | - |
| 1788000792 | 28.33° C | 60% | 909 hPa | - | - | - | - |
| 1788000192 | 28.33° C | 60% | 909 hPa | - | - | - | - |
| 1787999591 | 28.33° C | 60% | 909 hPa | - | - | - | - |
| 1787998991 | 28.33° C | 57% | 909 hPa | - | - | - | - |
| 1787998392 | 28.33° C | 57% | 909 hPa | - | - | - | - |
| 1787997792 | 28.33° C | 57% | 908.9 hPa | - | - | - | - |
* Rain since midnight (hover to see other rain measurements)
** Current wind speed in m/s (hover to see current wind gust speed)